| time (UTC) | temp C | wind direction | speed KPH | gust KPH | rain 1hr cm | rain 24hr cm | rain mn cm | humidity % | barometer mb |
| 20260510123015 | 22 | 193 | 0.0 | 0.0 | 0.00 | 0.20 | 0.03 | 86 | 1015.8 |
| 20260510122015 | 21 | 193 | 0.0 | 0.0 | 0.00 | 0.20 | 0.03 | 87 | 1015.7 |
| 20260510120013 | 21 | 193 | 0.0 | 0.0 | 0.00 | 0.20 | 0.03 | 87 | 1015.5 |
| 20260510115015 | 21 | 193 | 0.0 | 0.0 | 0.00 | 0.20 | 0.03 | 87 | 1015.5 |
| 20260510114016 | 20 | 193 | 0.0 | 0.0 | 0.00 | 0.20 | 0.03 | 87 | 1015.3 |
| 20260510113014 | 20 | 193 | 0.0 | 0.0 | 0.00 | 0.20 | 0.03 | 87 | 1015.0 |
| 20260510111015 | 20 | 193 | 0.0 | 0.0 | 0.00 | 0.20 | 0.03 | 87 | 1014.8 |
| 20260510104015 | 20 | 193 | 0.0 | 0.0 | 0.00 | 0.20 | 0.03 | 87 | 1014.4 |
| 20260510103014 | 20 | 193 | 0.0 | 0.0 | 0.00 | 0.20 | 0.03 | 87 | 1014.2 |
| 20260510102015 | 20 | 193 | 0.0 | 0.0 | 0.00 | 0.20 | 0.03 | 87 | 1014.2 |
| 20260510100013 | 20 | 193 | 0.0 | 0.0 | 0.00 | 0.20 | 0.03 | 87 | 1014.1 |
| 20260510095015 | 20 | 193 | 0.0 | 0.0 | 0.00 | 0.20 | 0.03 | 87 | 1014.0 |
| 20260510094015 | 20 | 193 | 0.0 | 0.0 | 0.00 | 0.20 | 0.03 | 87 | 1013.9 |
| 20260510093015 | 20 | 193 | 0.0 | 0.0 | 0.00 | 0.20 | 0.03 | 87 | 1013.8 |
| 20260510092014 | 20 | 193 | 0.0 | 0.0 | 0.00 | 0.20 | 0.03 | 87 | 1013.7 |
| 20260510091014 | 21 | 193 | 0.0 | 0.0 | 0.00 | 0.20 | 0.03 | 87 | 1013.6 |
| 20260510090013 | 21 | 193 | 0.0 | 0.0 | 0.00 | 0.20 | 0.03 | 87 | 1013.4 |
| 20260510084014 | 21 | 193 | 0.0 | 0.0 | 0.00 | 0.20 | 0.03 | 87 | 1013.2 |
| 20260510083017 | 21 | 193 | 0.0 | 0.0 | 0.03 | 0.20 | 0.03 | 87 | 1013.0 |
| 20260510082015 | 21 | 193 | 0.0 | 0.0 | 0.03 | 0.20 | 0.03 | 87 | 1013.1 |
| 20260510081015 | 21 | 193 | 0.0 | 0.0 | 0.03 | 0.20 | 0.03 | 87 | 1013.2 |
| 20260510080013 | 21 | 193 | 0.0 | 0.0 | 0.03 | 0.20 | 0.03 | 87 | 1013.1 |
| 20260510074014 | 21 | 193 | 0.0 | 0.0 | 0.03 | 0.20 | 0.03 | 87 | 1013.1 |
| 20260510073014 | 21 | 193 | 0.0 | 0.0 | 0.00 | 0.18 | 0.00 | 87 | 1013.1 |
| 20260510072014 | 21 | 193 | 0.0 | 0.0 | 0.00 | 0.18 | 0.00 | 88 | 1013.0 |
| 20260510071014 | 21 | 193 | 0.0 | 0.0 | 0.00 | 0.18 | 0.00 | 88 | 1012.9 |
| 20260510070013 | 21 | 193 | 0.0 | 0.0 | 0.00 | 0.18 | 0.00 | 87 | 1012.9 |
| 20260510065014 | 21 | 193 | 0.0 | 0.0 | 0.00 | 0.18 | 0.00 | 87 | 1012.9 |
| 20260510064017 | 21 | 193 | 0.0 | 0.0 | 0.00 | 0.18 | 0.00 | 87 | 1013.0 |
| 20260510061015 | 21 | 190 | 1.6 | 4.8 | 0.00 | 0.18 | 0.00 | 87 | 1013.3 |
| 20260510055014 | 21 | 173 | 0.0 | 3.2 | 0.00 | 0.18 | 0.00 | 87 | 1013.6 |
| 20260510054015 | 21 | 145 | 0.0 | 3.2 | 0.00 | 0.18 | 0.00 | 88 | 1013.9 |
| 20260510053017 | 21 | 145 | 0.0 | 0.0 | 0.00 | 0.18 | 0.00 | 88 | 1014.0 |
| 20260510052014 | 21 | 145 | 0.0 | 0.0 | 0.00 | 0.18 | 0.00 | 88 | 1014.2 |
| 20260510051015 | 21 | 145 | 0.0 | 0.0 | 0.00 | 0.18 | 0.00 | 88 | 1014.2 |
| 20260510050013 | 21 | 145 | 0.0 | 0.0 | 0.00 | 0.18 | 0.00 | 88 | 1014.4 |
| 20260510045014 | 21 | 145 | 0.0 | 0.0 | 0.00 | 0.18 | 0.00 | 88 | 1014.6 |
| 20260510044015 | 21 | 145 | 0.0 | 0.0 | 0.00 | 0.18 | 0.00 | 88 | 1014.8 |
| 20260510043016 | 21 | 145 | 0.0 | 0.0 | 0.00 | 0.18 | 0.00 | 88 | 1014.9 |
| 20260510042015 | 21 | 145 | 0.0 | 0.0 | 0.00 | 0.18 | 0.00 | 88 | 1014.8 |
| 20260510041014 | 21 | 145 | 0.0 | 0.0 | 0.00 | 0.18 | 0.00 | 88 | 1014.8 |
| 20260510040013 | 21 | 145 | 0.0 | 0.0 | 0.00 | 0.18 | 0.00 | 88 | 1014.8 |
| 20260510035016 | 21 | 145 | 0.0 | 0.0 | 0.00 | 0.18 | 0.18 | 88 | 1014.7 |
| 20260510033014 | 21 | 145 | 0.0 | 0.0 | 0.00 | 0.18 | 0.18 | 88 | 1014.7 |
| 20260510032015 | 21 | 145 | 0.0 | 0.0 | 0.00 | 0.18 | 0.18 | 88 | 1014.7 |
| 20260510031018 | 21 | 145 | 0.0 | 0.0 | 0.00 | 0.18 | 0.18 | 88 | 1014.9 |
| 20260510025014 | 21 | 127 | 0.0 | 3.2 | 0.00 | 0.18 | 0.18 | 88 | 1014.7 |
| 20260510024015 | 21 | 127 | 0.0 | 3.2 | 0.00 | 0.18 | 0.18 | 89 | 1014.8 |
| 20260510023018 | 21 | 127 | 0.0 | 0.0 | 0.00 | 0.18 | 0.18 | 89 | 1014.6 |
| 20260510020012 | 21 | 127 | 0.0 | 1.6 | 0.00 | 0.18 | 0.18 | 89 | 1014.0 |
| 20260510013016 | 21 | 127 | 0.0 | 0.0 | 0.00 | 0.18 | 0.18 | 90 | 1013.6 |
| 20260510012018 | 21 | 127 | 0.0 | 0.0 | 0.00 | 0.18 | 0.18 | 90 | 1013.3 |
| 20260510011016 | 21 | 127 | 0.0 | 0.0 | 0.00 | 0.18 | 0.18 | 90 | 1013.3 |
| 20260510010013 | 21 | 127 | 0.0 | 0.0 | 0.00 | 0.18 | 0.18 | 90 | 1013.1 |
| 20260510003014 | 22 | 94 | 0.0 | 0.0 | 0.03 | 0.18 | 0.18 | 90 | 1013.0 |
| 20260510002013 | 22 | 69 | 0.0 | 3.2 | 0.05 | 0.18 | 0.18 | 91 | 1012.9 |
| 20260510001014 | 22 | 56 | 1.6 | 3.2 | 0.05 | 0.18 | 0.18 | 91 | 1013.1 |
| 20260509235016 | 22 | 341 | 1.6 | 4.8 | 0.05 | 0.18 | 0.18 | 91 | 1013.8 |
| 20260509234014 | 22 | 317 | 1.6 | 3.2 | 0.05 | 0.18 | 0.18 | 91 | 1013.7 |
| 20260509233014 | 22 | 265 | 0.0 | 0.0 | 0.03 | 0.15 | 0.15 | 92 | 1013.6 |
| 20260509232013 | 22 | 280 | 0.0 | 4.8 | 0.00 | 0.13 | 0.13 | 92 | 1013.5 |
| 20260509230013 | 23 | 331 | 0.0 | 4.8 | 0.00 | 0.13 | 0.13 | 92 | 1013.5 |
| 20260509225017 | 23 | 291 | 1.6 | 4.8 | 0.00 | 0.13 | 0.13 | 92 | 1013.4 |
| 20260509224014 | 23 | 312 | 1.6 | 3.2 | 0.03 | 0.13 | 0.13 | 92 | 1013.4 |
| 20260509223014 | 23 | 334 | 0.0 | 4.8 | 0.03 | 0.13 | 0.13 | 92 | 1013.2 |
| 20260509222016 | 23 | 284 | 1.6 | 4.8 | 0.03 | 0.13 | 0.13 | 92 | 1013.2 |
| 20260509221016 | 23 | 246 | 1.6 | 4.8 | 0.03 | 0.13 | 0.13 | 92 | 1013.2 |
| 20260509220014 | 23 | 316 | 0.0 | 1.6 | 0.03 | 0.13 | 0.13 | 92 | 1013.3 |
| 20260509215017 | 23 | 331 | 0.0 | 4.8 | 0.03 | 0.13 | 0.13 | 92 | 1013.0 |
| 20260509214013 | 23 | 306 | 0.0 | 3.2 | 0.00 | 0.10 | 0.10 | 92 | 1012.9 |
| 20260509213017 | 23 | 298 | 0.0 | 1.6 | 0.00 | 0.10 | 0.10 | 92 | 1012.8 |
| 20260509211016 | 24 | 284 | 0.0 | 3.2 | 0.00 | 0.10 | 0.10 | 92 | 1012.5 |
| 20260509210013 | 24 | 311 | 1.6 | 3.2 | 0.00 | 0.10 | 0.10 | 92 | 1012.5 |
| 20260509205016 | 25 | 332 | 1.6 | 8.0 | 0.00 | 0.13 | 0.10 | 92 | 1012.7 |
| 20260509204013 | 25 | 284 | 1.6 | 8.0 | 0.00 | 0.36 | 0.10 | 92 | 1012.7 |
| 20260509202017 | 24 | 284 | 3.2 | 11.3 | 0.00 | 1.35 | 0.10 | 92 | 1012.7 |
| 20260509200012 | 25 | 272 | 0.0 | 0.0 | 0.05 | 1.35 | 0.10 | 91 | 1012.7 |
| 20260509195017 | 25 | 301 | 0.0 | 1.6 | 0.10 | 1.35 | 0.10 | 91 | 1012.7 |
| 20260509194014 | 25 | 301 | 0.0 | 3.2 | 0.10 | 1.35 | 0.10 | 92 | 1012.8 |
| 20260509193013 | 25 | 167 | 0.0 | 0.0 | 0.10 | 1.35 | 0.10 | 92 | 1012.5 |
| 20260509192014 | 25 | 168 | 0.0 | 1.6 | 0.10 | 1.35 | 0.10 | 92 | 1012.7 |
| 20260509190013 | 26 | 128 | 1.6 | 4.8 | 0.05 | 1.30 | 0.05 | 90 | 1012.9 |
| 20260509185014 | 26 | 184 | 0.0 | 0.0 | 0.00 | 1.24 | 0.00 | 89 | 1012.7 |
| 20260509184013 | 26 | 184 | 0.0 | 1.6 | 0.00 | 1.24 | 0.00 | 88 | 1012.8 |
| 20260509183014 | 26 | 184 | 0.0 | 0.0 | 0.00 | 1.24 | 0.00 | 87 | 1012.7 |
| 20260509182015 | 26 | 184 | 0.0 | 1.6 | 0.00 | 1.24 | 0.00 | 86 | 1013.0 |
| 20260509181014 | 26 | 184 | 0.0 | 1.6 | 0.00 | 1.24 | 0.00 | 86 | 1013.0 |
| 20260509180013 | 26 | 184 | 3.2 | 4.8 | 0.00 | 1.24 | 0.00 | 85 | 1013.0 |
| 20260509175016 | 27 | 185 | 1.6 | 4.8 | 0.00 | 1.24 | 0.00 | 85 | 1013.0 |
| 20260509174013 | 27 | 172 | 1.6 | 4.8 | 0.00 | 1.24 | 0.00 | 85 | 1013.2 |
| 20260509173014 | 27 | 175 | 1.6 | 4.8 | 0.00 | 1.24 | 0.00 | 84 | 1013.5 |
| 20260509171014 | 27 | 316 | 0.0 | 4.8 | 0.00 | 1.24 | 0.00 | 84 | 1013.4 |
| 20260509170015 | 27 | 190 | 3.2 | 8.0 | 0.00 | 1.24 | 0.00 | 83 | 1013.3 |
| 20260509165013 | 27 | 191 | 1.6 | 4.8 | 0.00 | 1.24 | 0.00 | 83 | 1013.4 |
| 20260509164013 | 27 | 234 | 1.6 | 4.8 | 0.00 | 1.24 | 0.00 | 86 | 1013.5 |
| 20260509163016 | 27 | 14 | 1.6 | 4.8 | 0.00 | 1.24 | 0.00 | 86 | 1013.6 |
| 20260509162012 | 26 | 182 | 1.6 | 4.8 | 0.00 | 1.24 | 0.00 | 86 | 1013.7 |
| 20260509161014 | 26 | 329 | 3.2 | 4.8 | 0.00 | 1.24 | 0.00 | 86 | 1013.7 |
| 20260509160012 | 26 | 178 | 1.6 | 4.8 | 0.00 | 1.24 | 0.00 | 88 | 1013.2 |
| 20260509155014 | 26 | 170 | 1.6 | 8.0 | 0.00 | 1.24 | 0.00 | 88 | 1013.5 |
| 20260509154013 | 26 | 162 | 1.6 | 4.8 | 0.00 | 1.24 | 0.00 | 89 | 1013.6 |
| 20260509152015 | 25 | 149 | 3.2 | 4.8 | 0.00 | 1.24 | 0.00 | 89 | 1013.7 |
| 20260509150012 | 25 | 198 | 1.6 | 4.8 | 0.00 | 1.24 | 0.00 | 90 | 1013.4 |
| 20260509145013 | 25 | 188 | 3.2 | 8.0 | 0.00 | 1.24 | 0.00 | 91 | 1013.4 |
| 20260509144013 | 25 | 188 | 3.2 | 4.8 | 0.00 | 1.24 | 0.00 | 92 | 1013.6 |
| 20260509142014 | 24 | 208 | 3.2 | 11.3 | 0.00 | 1.24 | 0.00 | 92 | 1013.6 |
| 20260509141015 | 23 | 205 | 0.0 | 4.8 | 0.00 | 1.24 | 0.00 | 92 | 1013.6 |
| 20260509140011 | 23 | 191 | 0.0 | 4.8 | 0.00 | 1.24 | 0.00 | 92 | 1013.8 |
| 20260509133014 | 22 | 184 | 1.6 | 4.8 | 0.00 | 1.24 | 0.00 | 91 | 1013.6 |
| 20260509132013 | 22 | 192 | 0.0 | 8.0 | 0.00 | 1.24 | 0.00 | 90 | 1013.5 |
| 20260509131014 | 22 | 180 | 1.6 | 8.0 | 0.00 | 1.24 | 0.00 | 89 | 1013.2 |
| 20260509130011 | 21 | 192 | 1.6 | 4.8 | 0.00 | 1.24 | 0.00 | 89 | 1013.2 |
| 20260509124013 | 20 | 182 | 3.2 | 4.8 | 0.00 | 1.24 | 0.00 | 88 | 1013.2 |